Weather History for McCall, ID

Change the Weather History Date:

Tuesday, April 10, 2012

  Actual Average Record
Temperature  
Mean Temperature 46 °F 35 °F  
Max Temperature 66 °F 46 °F 66 °F (1985)
Min Temperature 26 °F 24 °F 10 °F (1999)
Degree Days  
Heating Degree Days 19 30  
Month to date heating degree days 312 310  
Since 1 July heating degree days 7373 8099  
Cooling Degree Days 0 0  
Month to date cooling degree days 0 0  
Year to date cooling degree days 0 0  
Moisture  
Dew Point 24 °F    
Average Humidity 52    
Maximum Humidity 85    
Minimum Humidity 18    
Precipitation  
Precipitation 0.00 in 0.07 in 1.16 in (1948)
Month to date precipitation 0.22 0.72  
Year to date precipitation 11.84 6.39  
Sea Level Pressure  
Sea Level Pressure 29.81 in    
Wind  
Wind Speed 3 mph (NW)    
Max Wind Speed 12 mph    
Max Gust Speed 15 mph    
Visibility 10 miles    
Events      
T = Trace of Precipitation, MM = Missing Value Source: NWS Daily Summary

Daily Weather History Graph

Daily Weather History Graph

Search for Another Location

Airport:

Trip Planner

Search our weather history database for the weather conditions in past years. The results will help you decide how hot, cold, wet, or windy it might be!

Date:

Astronomy

Apr. 10, 2012 Rise Set
Actual Time 7:07 AM MDT 8:24 PM MDT
Civil Twilight 6:37 AM MDT 8:54 PM MDT
Nautical Twilight 6:01 AM MDT 9:30 PM MDT
Astronomical Twilight 5:22 AM MDT 10:09 PM MDT
Moon 12:33 AM MDT (4/10) 9:46 AM MDT (4/10)
Length of Visible Light 14h 17m
Length of Day
13h 16m
Waning Gibbous, 79% of the Moon is Illuminated
Apr 10
Waning Gibbous
Apr 13
Last Quarter
Apr 21
New
Apr 29
First Quarter
May 5
Full

Hourly Weather History & Observations

Time (MDT) Temp. Windchill Dew Point Humidity Pressure Visibility Wind Dir Wind Speed Gust Speed Precip Events Conditions
12:51 AM 34.0 °F - 25.0 °F 70% 29.94 in 10.0 mi Calm Calm - N/A   Clear
1:51 AM 34.0 °F - 24.1 °F 67% 29.91 in 10.0 mi Calm Calm - N/A   Clear
2:51 AM 33.1 °F - 24.1 °F 70% 29.90 in 10.0 mi Calm Calm - N/A   Clear
3:51 AM 30.0 °F - 24.1 °F 79% 29.87 in 10.0 mi Calm Calm - N/A   Clear
4:51 AM 30.0 °F 26.5 °F 21.9 °F 72% 29.86 in 10.0 mi Variable 3.5 mph - N/A   Clear
5:51 AM 28.9 °F - 23.0 °F 78% 29.84 in 10.0 mi Calm Calm - N/A   Clear
6:51 AM 30.0 °F - 21.9 °F 72% 29.83 in 8.0 mi Calm Calm - N/A   Clear
7:51 AM 28.0 °F - 24.1 °F 85% 29.87 in 10.0 mi Calm Calm - N/A   Clear
8:51 AM 33.1 °F - 26.1 °F 75% 29.89 in 10.0 mi Calm Calm - N/A   Clear
9:51 AM 42.1 °F - 25.0 °F 51% 29.87 in 10.0 mi Calm Calm - N/A   Clear
10:51 AM 46.0 °F - 27.0 °F 47% 29.88 in 10.0 mi Calm Calm - N/A   Clear
12:51 PM 59.0 °F - 19.0 °F 21% 29.82 in 10.0 mi Calm Calm - N/A   Clear
2:51 PM 64.9 °F - 23.0 °F 20% 29.77 in 10.0 mi NW 3.5 mph - N/A   Clear
3:51 PM 64.9 °F - 19.0 °F 17% 29.75 in 10.0 mi WSW 5.8 mph - N/A   Clear
4:51 PM 64.0 °F - 21.0 °F 19% 29.74 in 10.0 mi WNW 8.1 mph - N/A   Clear
5:51 PM 63.0 °F - 21.9 °F 21% 29.75 in 10.0 mi WNW 8.1 mph - N/A   Clear
6:51 PM 61.0 °F - 23.0 °F 23% 29.74 in 10.0 mi NW 3.5 mph - N/A   Clear
7:51 PM 54.0 °F - 26.1 °F 34% 29.75 in 10.0 mi North 4.6 mph - N/A   Clear
8:51 PM 54.0 °F - 24.1 °F 31% 29.71 in 10.0 mi North 9.2 mph - N/A   Clear
9:51 PM 48.9 °F - 24.1 °F 38% 29.69 in 10.0 mi NNE 6.9 mph - N/A   Clear
10:51 PM 41.0 °F 38.0 °F 27.0 °F 57% 29.68 in 10.0 mi SSE 4.6 mph - N/A   Clear
11:51 PM 41.0 °F 39.0 °F 26.1 °F 55% 29.65 in 10.0 mi North 3.5 mph - N/A   Clear